Torna al catalogo

DELTA 1 DEB

AttivoSSO
NORAD 3416·DEBRIS·🇺🇸 United States

Lanciato Aug 16, 1968 da Vandenberg Space Force Base

Loading…

Prossimi Passaggi (prossime 24 ore)

TLE

AggiornatoSource: Space-Track

Epoca: Sep 14, 2026, 08:19 UTC

1 03416U 68069C   26257.34682303 -.00000030  00000-0  88505-4 0  9998
2 03416 101.7400  32.7803 0118801 334.0014  51.9066 12.67155265685563

Traccia DELTA 1 DEB in tempo reale con AllMySat

Download on the App Store